Location: Glums�
(55.3568°N, 11.6856°E)
Time: 02:58:50
(UTC+00:00)

SeaSat 1 - Pass Details

Date: 07 June 2020
Orbit: 745 x 747 km, 108.0° (Epoch: 06 July)

Event Time Altitude Azimuth Distance (km) Brightness Sun altitude
Rises 00:33:35 0° 32° (NNE) 3,203 7.6 -10.0°
Reaches altitude 10° 00:36:03 10° 23° (NNE) 2,276 6.6 -9.8°
Maximum altitude 00:40:23 32° 322° (NW) 1,276 4.0 -9.6°
Drops below altitude 10° 00:44:43 10° 260° (W) 2,268 4.6 -9.4°
Sets 00:47:10 0° 251° (WSW) 3,189 5.3 -9.3°
Enters shadow 00:47:20 -1° 251° (WSW) 3,257 5.4 -9.3°
